Temperature
18 18 18 18 18 18 18 18 18 18 18 18 18 18 18 18 18 18 18 18 18 18 18 18 18 18 18 18 18 18 18 18 18 18 18 18 18 18 17 17 17 17 17
18 18 18 18 18 18 18 18 18 18 18 18 18 18 18 18 18 18 18 18 18 18 18 18 18 18 18 18 18 18 18 18 18 18 17 17 17 17 17 17 17 17 17
18 18 18 18 18 18 18 18 18 18 18 18 18 18 18 18 18 18 18 18 18 18 18 18 18 18 18 18 18 18 18 18 18 17 17 17 17 17 17 17 17 17 17
18 18 17 18 18 18 18 18 18 18 18 18 18 18 18 18 18 18 18 18 18 18 18 18 18 18 18 18 18 18 18 18 17 17 17 17 16 17 17 17 17 17 17
18 18 18 18 18 18 18 18 18 18 18 18 18 18 18 18 18 18 18 18 18 18 18 18 18 18 18 18 18 18 18 18 17 17 17 17 16 17 17 17 17 17 17
18 18 17 18 18 18 18 18 18 18 18 18 18 18 18 18 18 18 18 18 18 18 18 18 18 17 17 18 18 18 18 17 17 17 17 17 17 17 17 17 17 17 17
19 18 17 18 18 18 18 18 18 18 18 18 18 18 18 18 18 18 17 18 18 18 18 17 17 17 17 17 18 18 17 17 17 17 17 17 17 17 17 17 17 17 17
19 18 17 18 18 18 18 18 18 18 18 18 18 18 18 18 18 17 17 17 17 17 17 17 17 17 17 17 17 17 17 17 17 17 17 17 17 17 17 17 17 17 17
19 19 18 18 18 18 18 18 18 18 18 18 18 18 18 18 17 17 17 17 17 17 17 17 17 17 17 17 17 17 17 17 18 17 17 17 17 17 17 17 17 17 17
19 19 18 18 18 18 17 18 18 18 18 18 18 18 18 18 18 17 17 17 18 17 17 17 17 17 17 18 18 18 18 18 18 18 17 17 17 17 17 17 17 17 17
19 19 19 18 18 18 18 17 18 18 18 18 18 18 17 17 17 17 17 18 18 18 17 17 17 17 17 18 18 18 18 18 18 18 17 17 17 17 17 17 17 17 17
19 19 18 18 18 18 18 17 18 17 17 17 17 17 17 17 17 17 17 18 18 18 18 17 18 17 17 17 18 18 18 18 18 18 17 18 17 17 17 17 17 17 17
19 19 19 18 18 18 18 18 18 18 17 17 17 17 17 17 17 17 17 17 17 17 17 17 17 17 17 17 18 18 18 18 18 18 17 18 17 17 17 17 17 17 17
19 19 19 18 18 18 18 18 18 18 18 18 17 17 17 17 17 17 17 17 17 17 17 17 17 17 17 17 17 18 18 18 18 18 17 18 17 17 17 17 17 17 17
19 19 18 18 18 18 18 18 18 18 18 18 18 17 17 18 17 17 17 17 17 17 18 17 17 17 17 17 18 18 18 18 18 18 17 17 17 17 17 17 17 17 17
19 19 19 18 18 18 18 18 18 18 18 18 18 18 17 18 18 18 18 17 18 18 18 18 17 17 18 18 17 17 17 17 17 17 17 17 17 17 17 17 17 17 17
19 19 19 18 18 18 18 18 18 18 18 18 18 18 17 17 18 18 18 18 18 18 18 18 18 18 18 18 17 17 17 17 17 17 17 17 17 17 17 17 17 17 17
20 19 19 19 18 18 18 18 18 18 18 18 18 18 18 18 18 18 18 18 18 18 18 18 18 18 18 18 18 18 18 17 17 17 17 17 17 17 17 17 17 17 17
19 19 19 19 19 18 18 18 18 18 18 18 18 18 18 18 18 18 18 18 18 18 18 18 18 18 17 17 18 17 17 17 17 17 17 17 17 17 17 17 17 17 17
20 19 19 19 19 19 18 18 18 18 18 18 18 18 18 18 18 18 18 18 18 18 18 18 17 17 17 17 18 18 17 17 17 17 17 17 17 17 17 17 17 17 17
20 20 19 19 19 19 19 18 18 18 18 18 18 18 18 18 18 18 18 18 18 18 18 17 17 18 18 17 17 17 17 17 17 17 17 17 17 17 17 17 16 16 16
20 20 20 19 19 19 19 19 18 18 18 18 18 18 18 18 18 18 18 18 18 18 17 17 17 18 18 17 17 17 18 18 17 17 17 17 17 17 16 16 16 16 16
20 20 20 20 19 19 19 19 18 18 18 18 18 18 18 18 18 18 18 18 18 18 17 17 17 17 17 17 17 17 18 18 17 17 16 16 16 16 16 16 16 16 15
21 20 20 20 20 19 19 19 19 18 18 18 18 18 18 18 18 18 18 18 18 17 17 17 17 17 17 17 17 17 17 17 17 16 16 16 16 16 16 16 15 15 15
21 21 20 20 20 20 19 19 18 18 18 18 18 18 18 18 18 18 18 18 18 17 17 17 17 17 17 17 17 17 17 17 17 16 16 16 15 15 15 15 15 15 15
21 21 21 20 20 20 19 19 19 18 18 18 18 18 18 18 18 18 18 18 17 17 17 17 17 17 17 17 17 17 17 17 17 16 16 15 15 15 15 15 15 14 14
Wind_Speed
6 10 11 10 11 11 12 13 13 14 15 15 16 16 17 18 18 18 18 18 18 18 18 18 18 18 18 18 18 19 19 18 18 18 18 18 17 17 16 15 15 16 17
8 10 11 10 11 11 11 13 14 14 14 15 15 16 17 17 17 17 17 17 17 17 17 17 17 17 17 17 18 18 18 18 17 17 17 17 16 15 14 12 10 15 16
8 10 10 10 10 11 12 13 13 14 14 15 15 16 16 16 17 17 17 17 17 17 17 17 16 16 16 16 17 17 17 17 16 15 14 14 15 14 14 13 15 16 15
8 10 11 11 11 12 12 12 13 13 14 14 15 15 16 16 17 17 16 16 17 16 16 16 16 16 16 16 16 16 16 15 13 11 10 12 13 14 14 14 15 14 14
9 10 12 11 12 12 13 12 12 13 14 14 15 15 16 16 16 16 16 16 16 15 15 16 16 16 15 15 15 15 15 13 10 8 10 10 12 14 13 14 14 14 13
9 10 13 10 12 12 13 12 13 13 14 15 15 15 16 16 16 15 16 15 15 15 15 15 15 15 14 14 14 13 13 11 9 9 9 9 12 13 13 13 13 12 12
9 10 13 10 11 12 12 13 13 14 14 15 15 15 15 15 15 15 15 15 15 14 14 14 13 13 13 13 12 12 10 6 6 9 8 9 12 13 12 11 12 11 11
9 10 13 11 10 11 12 13 13 14 14 14 14 15 15 14 14 14 14 14 14 14 13 13 12 12 11 11 11 10 7 4 7 8 7 9 13 11 11 10 10 10 10
8 9 9 11 11 11 11 12 13 13 13 13 13 13 13 13 13 12 12 13 13 12 12 11 11 10 10 9 9 8 5 2 3 6 7 9 12 10 10 9 9 9 9
7 8 8 8 8 9 11 12 11 11 11 12 12 11 11 12 11 10 11 11 11 10 10 10 10 9 9 8 8 7 5 5 4 6 6 10 12 10 9 9 8 8 8
6 6 6 8 7 7 9 11 10 10 9 9 9 8 5 7 9 9 11 10 9 9 9 8 8 8 8 8 7 5 6 3 4 4 5 12 10 9 8 8 8 8 7
6 6 6 5 6 6 7 7 6 7 7 6 6 6 6 6 6 8 11 8 7 7 7 6 6 6 5 6 7 7 3 3 3 4 7 11 8 8 8 8 8 8 7
6 5 6 5 5 5 5 4 4 5 5 6 6 5 5 4 5 5 6 7 7 6 5 7 6 3 3 3 2 2 2 2 2 3 8 10 7 7 8 8 8 8 7
6 5 5 5 4 3 3 4 4 4 4 4 5 3 4 3 2 3 2 3 3 3 3 2 2 3 3 2 1 1 1 1 2 3 7 9 7 7 7 7 8 8 8
6 5 5 4 4 4 3 1 3 3 3 4 3 3 2 2 2 2 2 1 1 2 3 2 2 2 2 2 1 1 0 1 1 1 5 8 7 6 6 6 7 7 7
5 5 5 4 5 4 3 2 2 2 2 2 2 2 1 1 2 1 2 1 1 1 1 1 1 2 1 1 1 1 0 1 2 1 1 6 7 6 6 7 7 7 8
5 5 4 4 4 4 3 3 3 2 2 1 2 1 1 1 1 0 0 1 1 1 1 1 1 1 1 1 1 1 1 0 1 1 1 2 4 7 7 7 6 7 7
5 5 5 4 5 4 3 2 1 1 1 1 1 1 0 0 1 1 0 0 0 1 1 1 1 1 1 1 0 0 0 1 1 2 2 3 2 3 6 7 5 5 6
5 5 5 4 4 4 3 3 3 2 1 1 0 0 0 1 1 2 1 0 2 1 1 2 0 1 1 1 1 1 1 1 1 2 1 2 2 2 2 6 7 6 6
6 6 5 5 5 4 3 3 2 2 2 1 1 0 1 2 2 3 2 1 2 2 1 1 1 2 2 2 1 1 1 1 1 1 1 1 1 2 1 1 3 5 5
7 6 6 5 5 5 4 4 3 3 2 2 2 1 2 3 3 3 3 1 3 2 2 2 2 2 2 2 1 1 1 1 0 0 1 1 0 0 0 1 1 1 2
8 7 7 7 6 6 4 3 2 2 2 1 1 1 3 3 3 3 3 3 3 3 3 3 3 3 3 3 3 2 2 1 1 1 0 0 1 1 1 1 2 2 2
9 9 7 7 7 6 5 4 3 2 2 2 2 2 2 3 3 3 3 3 3 3 2 3 4 5 4 4 4 3 3 2 0 1 1 1 1 1 1 2 2 2 1
9 9 8 7 7 6 6 4 4 3 3 2 2 1 1 1 1 2 2 2 3 3 3 4 3 4 4 4 3 3 4 2 2 1 1 1 1 0 1 1 2 2 2
9 9 8 8 7 7 6 5 5 4 3 2 1 1 1 0 0 1 1 2 2 3 3 3 3 3 3 4 3 2 2 3 4 3 2 1 0 1 1 1 2 2 3
9 8 8 8 7 7 7 6 6 4 3 2 2 1 1 1 1 1 1 2 2 3 3 3 3 2 2 3 3 3 2 2 2 2 3 2 1 1 2 2 2 2 3
Wind_Direction
75 80 77 69 74 79 83 86 87 87 86 87 86 93 96 98 99 100 101 101 102 103 104 105 106 107 110 112 113 113 113 114 115 115 116 116 118 120 123 128 133 119 119
83 86 84 76 79 82 83 84 85 86 87 88 89 92 95 98 99 99 100 99 101 101 102 103 106 107 110 112 114 115 116 117 118 119 122 121 119 120 121 120 107 115 124
87 90 91 76 81 84 85 86 85 86 87 88 89 91 95 97 98 99 99 100 100 99 99 101 104 106 110 113 116 117 117 118 121 129 140 127 121 121 120 116 112 119 122
88 89 81 78 83 86 86 88 88 89 89 89 89 91 94 96 97 99 100 101 100 99 97 99 101 103 107 111 116 117 118 120 128 153 136 120 122 121 122 121 122 123 124
89 90 85 79 80 82 85 88 89 89 89 90 90 91 93 96 98 100 101 102 102 101 99 99 99 100 105 109 113 116 118 123 141 149 110 113 114 122 125 126 126 127 127
101 95 89 82 82 83 84 83 89 91 90 90 89 89 91 95 97 98 100 101 101 101 99 99 101 101 103 108 113 118 122 137 162 116 116 119 117 125 128 130 129 129 130
99 95 93 86 83 83 84 85 85 88 88 89 89 89 90 92 95 97 98 100 100 99 99 99 102 103 107 110 116 120 126 154 126 111 119 115 113 126 131 131 132 135 136
98 100 102 97 87 86 87 89 88 88 88 88 88 88 89 91 95 97 99 101 101 101 100 100 99 100 103 107 114 121 135 186 128 116 113 112 116 131 134 135 138 140 141
98 99 104 112 109 101 92 91 89 88 89 90 89 90 92 93 94 97 99 101 101 102 102 101 100 101 102 105 112 120 128 239 123 114 119 116 127 139 142 146 146 147 148
102 101 105 103 104 112 110 101 94 92 92 92 92 93 100 106 104 107 110 101 101 102 103 102 101 101 104 106 111 122 156 214 136 121 122 121 136 149 153 154 153 154 156
103 101 103 106 106 105 106 113 117 113 107 117 112 110 124 111 109 116 94 100 102 105 106 106 108 112 122 127 129 154 200 187 114 109 109 117 145 159 162 164 165 164 164
121 116 107 101 105 108 104 111 114 113 109 104 99 105 103 93 93 99 107 109 110 115 123 119 127 158 182 143 149 188 183 132 124 127 116 128 152 168 172 174 175 172 172
132 125 120 114 119 119 112 113 107 108 111 112 104 107 101 114 120 119 126 136 142 155 148 143 170 153 130 106 118 149 107 115 128 128 124 142 164 181 184 185 184 183 184
135 131 123 124 123 113 108 112 125 119 113 107 107 107 111 107 103 104 119 117 140 133 130 151 146 123 114 111 114 102 122 171 107 96 120 146 167 183 188 188 195 198 199
147 147 137 136 134 139 136 133 112 109 105 108 110 106 102 122 112 110 92 96 114 124 146 159 143 132 141 158 164 142 107 74 85 112 125 144 165 184 191 193 202 208 210
166 159 152 158 153 156 155 151 134 132 126 103 114 105 97 100 96 111 145 131 118 145 132 190 165 174 184 133 130 121 203 121 106 124 158 152 166 183 196 201 206 215 220
177 173 177 176 168 174 177 179 166 161 139 125 120 131 195 169 125 219 85 202 112 144 155 198 199 189 191 175 150 136 158 141 126 171 226 220 182 179 189 201 209 216 222
179 179 193 195 174 181 192 208 198 161 124 130 147 144 186 279 200 253 239 233 208 228 217 202 233 237 228 222 192 296 102 163 203 206 220 221 231 210 181 184 199 218 228
184 183 188 199 195 193 189 199 202 186 196 180 201 233 156 240 243 248 253 265 240 236 253 272 140 260 255 276 239 218 253 248 240 214 221 236 228 236 228 176 190 213 230
186 186 192 197 199 201 197 200 215 212 204 196 197 230 248 232 243 261 227 218 252 234 246 277 281 255 252 245 280 348 281 258 242 237 234 216 225 237 249 229 195 198 204
186 188 194 201 194 201 205 212 206 206 210 206 199 209 237 245 246 257 282 229 256 260 265 250 245 226 227 208 222 239 228 204 161 257 242 280 285 254 24 18 310 289 172
191 194 195 198 197 201 195 209 217 226 220 226 262 233 245 244 256 247 256 263 263 270 262 256 246 258 251 226 236 243 237 194 135 63 74 109 343 51 61 53 36 25 358
193 196 198 201 198 202 199 202 201 199 226 220 228 220 247 254 256 270 268 275 284 273 264 257 247 246 250 247 243 255 262 257 168 104 71 63 45 39 29 51 53 45 21
195 192 196 197 197 197 202 213 221 220 231 236 252 213 230 257 277 272 276 283 286 289 284 268 259 258 250 252 248 253 264 270 237 224 193 124 90 58 358 6 35 40 39
191 189 188 189 194 197 203 206 223 237 238 229 226 188 231 134 343 342 333 315 302 302 310 303 294 277 267 266 262 252 244 239 231 234 238 223 170 32 41 25 39 36 39
183 182 182 183 190 193 200 206 219 232 245 252 244 229 218 148 71 35 355 337 323 331 320 305 290 265 271 268 272 262 248 245 226 219 218 214 222 348 31 48 50 55 48
Height
1529 1526 1524 1523 1522 1522 1522 1522 1522 1522 1521 1520 1519 1519 1520 1521 1523 1524 1525 1526 1527 1528 1528 1529 1529 1530 1531 1534 1536 1538 1541 1543 1545 1547 1549 1550 1552 1554 1555 1557 1558 1559 1559
1531 1529 1527 1526 1526 1525 1525 1525 1525 1525 1525 1525 1524 1524 1525 1525 1527 1528 1528 1530 1530 1531 1531 1532 1532 1533 1534 1536 1538 1541 1543 1546 1548 1550 1551 1553 1554 1556 1557 1559 1560 1561 1561
1533 1532 1530 1529 1528 1528 1528 1528 1529 1529 1529 1529 1529 1529 1529 1530 1530 1531 1532 1533 1534 1535 1535 1535 1535 1535 1536 1537 1540 1543 1546 1548 1551 1552 1554 1557 1557 1558 1559 1561 1561 1562 1563
1536 1535 1533 1532 1531 1531 1531 1532 1532 1532 1532 1532 1532 1533 1533 1533 1534 1534 1535 1536 1537 1538 1538 1538 1538 1538 1538 1540 1542 1545 1548 1551 1553 1555 1559 1560 1560 1560 1561 1562 1563 1564 1565
1538 1537 1535 1535 1535 1535 1534 1535 1535 1535 1535 1536 1536 1536 1536 1537 1537 1538 1539 1540 1540 1541 1542 1542 1542 1541 1542 1543 1546 1549 1551 1553 1555 1558 1561 1562 1562 1562 1563 1564 1565 1566 1567
1540 1541 1538 1538 1538 1538 1537 1537 1537 1538 1539 1539 1539 1540 1540 1541 1541 1542 1542 1543 1544 1544 1545 1545 1546 1546 1546 1548 1550 1552 1554 1556 1559 1562 1562 1564 1564 1563 1564 1565 1566 1567 1568
1543 1543 1541 1540 1540 1540 1540 1540 1541 1541 1542 1542 1543 1543 1544 1544 1544 1545 1546 1547 1547 1547 1548 1549 1549 1550 1551 1553 1554 1555 1557 1559 1563 1564 1564 1565 1565 1565 1566 1567 1568 1569 1570
1545 1546 1544 1543 1543 1543 1543 1544 1544 1544 1545 1545 1546 1546 1547 1547 1547 1548 1549 1550 1550 1551 1551 1552 1553 1554 1555 1556 1557 1558 1559 1561 1564 1566 1566 1567 1566 1566 1567 1568 1569 1570 1571
1548 1548 1548 1548 1546 1546 1546 1547 1547 1547 1548 1548 1549 1549 1549 1550 1551 1551 1552 1552 1553 1554 1554 1555 1556 1557 1558 1558 1559 1561 1562 1563 1567 1567 1568 1568 1567 1567 1568 1569 1570 1571 1572
1549 1550 1549 1550 1550 1551 1550 1549 1550 1550 1551 1551 1551 1552 1552 1553 1554 1554 1555 1555 1556 1556 1557 1558 1559 1559 1560 1561 1562 1563 1564 1565 1569 1569 1569 1569 1568 1569 1569 1570 1571 1572 1573
1550 1551 1552 1553 1553 1553 1554 1552 1553 1553 1553 1554 1554 1554 1556 1557 1558 1558 1558 1558 1558 1559 1560 1560 1561 1562 1562 1563 1564 1565 1566 1568 1569 1570 1570 1569 1569 1570 1570 1571 1572 1572 1573
1552 1553 1553 1554 1554 1555 1556 1556 1557 1557 1556 1557 1557 1558 1558 1558 1560 1560 1560 1560 1561 1561 1562 1562 1563 1564 1565 1566 1566 1566 1568 1569 1570 1570 1570 1569 1570 1570 1571 1571 1572 1573 1573
1554 1554 1555 1555 1555 1557 1557 1558 1558 1559 1559 1559 1559 1559 1560 1561 1562 1562 1563 1563 1563 1564 1565 1565 1565 1567 1567 1568 1568 1569 1570 1570 1571 1571 1570 1570 1570 1570 1571 1571 1572 1572 1573
1555 1556 1556 1557 1557 1557 1558 1559 1559 1560 1561 1561 1560 1561 1562 1563 1563 1564 1564 1565 1565 1566 1566 1567 1567 1567 1568 1568 1569 1569 1570 1570 1571 1571 1570 1570 1570 1570 1571 1571 1571 1572 1573
1556 1557 1557 1557 1557 1558 1558 1559 1561 1561 1562 1562 1562 1562 1563 1564 1564 1565 1565 1565 1566 1567 1567 1567 1567 1567 1568 1568 1569 1569 1569 1570 1570 1570 1570 1569 1570 1570 1570 1570 1571 1571 1572
1557 1558 1559 1559 1559 1559 1559 1560 1561 1562 1562 1563 1564 1564 1563 1565 1565 1565 1565 1566 1567 1567 1567 1567 1567 1567 1568 1568 1568 1568 1569 1569 1569 1569 1570 1569 1569 1569 1569 1569 1570 1570 1570
1558 1558 1559 1560 1560 1560 1561 1561 1563 1563 1564 1564 1564 1564 1564 1565 1565 1566 1566 1567 1567 1567 1567 1567 1567 1567 1567 1567 1567 1568 1568 1568 1568 1568 1569 1569 1569 1568 1568 1568 1568 1569 1569
1558 1558 1559 1561 1561 1561 1561 1562 1563 1564 1564 1564 1565 1565 1565 1565 1565 1566 1566 1567 1566 1567 1567 1567 1567 1567 1567 1567 1567 1567 1567 1566 1566 1566 1567 1567 1568 1568 1567 1567 1567 1567 1567
1557 1558 1559 1560 1561 1561 1562 1562 1563 1563 1564 1564 1565 1565 1565 1565 1565 1566 1566 1566 1566 1567 1566 1566 1566 1566 1566 1565 1565 1565 1565 1565 1565 1565 1566 1566 1566 1566 1566 1565 1565 1565 1565
1556 1557 1558 1559 1560 1561 1561 1562 1562 1563 1564 1564 1564 1564 1564 1565 1565 1565 1566 1565 1566 1566 1565 1565 1564 1564 1564 1564 1564 1564 1564 1564 1564 1564 1564 1564 1564 1564 1565 1564 1564 1563 1563
1555 1556 1557 1558 1559 1560 1561 1562 1562 1563 1563 1564 1564 1563 1564 1564 1564 1564 1565 1564 1564 1564 1564 1564 1563 1563 1563 1562 1562 1562 1562 1562 1562 1562 1562 1562 1563 1563 1563 1562 1562 1562 1562
1554 1555 1556 1557 1558 1559 1560 1561 1561 1562 1562 1563 1563 1562 1562 1563 1563 1564 1563 1563 1563 1562 1562 1561 1561 1561 1561 1561 1561 1560 1561 1561 1560 1560 1560 1560 1561 1561 1561 1560 1560 1560 1560
1552 1553 1555 1556 1557 1558 1559 1560 1561 1561 1561 1562 1562 1561 1561 1561 1562 1561 1561 1561 1561 1560 1560 1559 1559 1559 1559 1559 1559 1559 1559 1558 1559 1559 1559 1559 1559 1559 1559 1559 1558 1558 1557
1550 1552 1553 1554 1555 1557 1558 1559 1560 1560 1561 1561 1561 1561 1561 1561 1561 1560 1560 1559 1559 1559 1558 1557 1557 1557 1556 1556 1556 1556 1557 1557 1557 1557 1558 1558 1557 1557 1557 1557 1557 1556 1556
1548 1550 1551 1552 1554 1555 1556 1557 1558 1559 1560 1560 1560 1560 1560 1559 1559 1559 1558 1558 1557 1556 1555 1555 1554 1554 1554 1554 1554 1554 1554 1554 1555 1555 1556 1556 1556 1556 1555 1555 1555 1555 1554
1546 1548 1549 1551 1552 1553 1555 1556 1557 1558 1558 1559 1559 1559 1559 1559 1558 1557 1557 1556 1555 1554 1553 1552 1552 1552 1551 1551 1551 1551 1551 1551 1552 1552 1552 1553 1554 1555 1554 1554 1553 1553 1552